Weather History for KCCY - January, 2013

Change the Weather History Date:

Tuesday, January 8, 2013

  Actual Average Record
Temperature  
Mean Temperature 26 °F -  
Max Temperature 37 °F 21 °F 55 °F (2002)
Min Temperature 15 °F 1 °F -21 °F (1970)
Degree Days  
Heating Degree Days 39    
Moisture  
Dew Point 24 °F    
Average Humidity 86    
Maximum Humidity 93    
Minimum Humidity 75    
Precipitation  
Precipitation 0.00 in - - ()
Sea Level Pressure  
Sea Level Pressure 29.93 in    
Wind  
Wind Speed 10 mph (South)    
Max Wind Speed 20 mph    
Max Gust Speed 28 mph    
Visibility 7 miles    
Events Fog , Rain , Snow    
Averages and records for this station are not official NWS values.
T = Trace of Precipitation, MM = Missing Value Source: NWS Daily Summary

Daily Weather History Graph

Daily Weather History Graph

Search for Another Location

Airport or City:

Trip Planner

Search our weather history database for the weather conditions in past years. The results will help you decide how hot, cold, wet, or windy it might be!

Date:

Astronomy

Jan. 08, 2013 Rise Set
Actual Time 7:41 AM CST 4:53 PM CST
Civil Twilight 7:09 AM CST 5:25 PM CST
Nautical Twilight 6:34 AM CST 6:00 PM CST
Astronomical Twilight 5:59 AM CST 6:35 PM CST
Moon 4:14 AM CST (1/8) 1:56 PM CST (1/8)
Length of Visible Light 10h 15m
Length of Day
9h 11m
Waning Crescent, 13% of the Moon is Illuminated
Jan 8
Waning Crescent
Jan 11
New
Jan 18
First Quarter
Jan 26
Full
Feb 3
Last Quarter

Hourly Weather History & Observations

Time (CST) Temp. Windchill Dew Point Humidity Pressure Visibility Wind Dir Wind Speed Gust Speed Precip Events Conditions
12:15 AM 24.8 °F 17.9 °F 23.0 °F 93% 30.00 in 1.0 mi SSW 5.8 mph - N/A   Mostly Cloudy
12:55 AM 21.2 °F 10.9 °F 19.4 °F 93% 30.00 in 0.2 mi South 9.2 mph - N/A Fog Light Freezing Fog
1:15 AM 19.4 °F 9.5 °F 17.6 °F 93% 30.00 in 0.2 mi South 8.1 mph - N/A Fog Light Freezing Fog
1:35 AM 21.2 °F 11.7 °F 19.4 °F 93% 30.00 in 0.2 mi South 8.1 mph - N/A Fog Light Freezing Fog
1:55 AM 19.4 °F 9.5 °F 17.6 °F 93% 29.99 in 0.2 mi South 8.1 mph - N/A Fog Light Freezing Fog
2:15 AM 21.2 °F 13.6 °F 19.4 °F 93% 30.00 in 1.8 mi South 5.8 mph - N/A   Scattered Clouds
2:35 AM 21.2 °F - 19.4 °F 93% 30.00 in 0.5 mi Calm Calm - N/A Fog Light Freezing Fog
2:55 AM 19.4 °F - 15.8 °F 86% 30.00 in 1.0 mi Calm Calm - N/A   Mostly Cloudy
3:15 AM 15.8 °F 8.6 °F 14.0 °F 93% 30.00 in 0.2 mi East 4.6 mph - N/A Snow Light Snow
3:35 AM 15.8 °F 8.6 °F 14.0 °F 93% 30.00 in 0.2 mi East 4.6 mph - N/A Fog Light Freezing Fog
3:55 AM 15.8 °F 7.2 °F 14.0 °F 93% 29.99 in 0.2 mi East 5.8 mph - N/A Snow Light Snow
4:15 AM 15.8 °F 7.2 °F 14.0 °F 93% 29.98 in 0.2 mi SE 5.8 mph - N/A Snow Light Snow
4:35 AM 15.8 °F 7.2 °F 14.0 °F 93% 29.98 in 0.2 mi SE 5.8 mph - N/A Fog Light Freezing Fog
4:55 AM 17.6 °F 10.7 °F 15.8 °F 93% 29.98 in 0.2 mi ESE 4.6 mph - N/A Fog Light Freezing Fog
5:15 AM 17.6 °F 8.2 °F 14.0 °F 86% 29.98 in 0.2 mi SE 6.9 mph - N/A Fog Light Freezing Fog
5:35 AM 15.8 °F 7.2 °F 12.2 °F 86% 29.98 in 0.2 mi East 5.8 mph - N/A Fog Light Freezing Fog
5:55 AM 15.8 °F 7.2 °F 12.2 °F 86% 29.98 in 0.2 mi ESE 5.8 mph - N/A Fog Light Freezing Fog
6:15 AM 15.8 °F 6.1 °F 12.2 °F 86% 29.97 in 3.0 mi ESE 6.9 mph - N/A   Clear
6:35 AM 15.8 °F 6.1 °F 12.2 °F 86% 29.98 in 3.0 mi ESE 6.9 mph - N/A   Clear
6:55 AM 15.8 °F 6.1 °F 14.0 °F 93% 29.97 in 3.0 mi ESE 6.9 mph - N/A   Clear
7:35 AM 21.2 °F 10.9 °F 19.4 °F 93% 29.97 in 4.0 mi SE 9.2 mph - N/A   Clear
7:55 AM 21.2 °F 10.1 °F 19.4 °F 93% 29.97 in 4.0 mi SE 10.4 mph - N/A   Clear
8:15 AM 21.2 °F 9.5 °F 19.4 °F 93% 29.97 in 5.0 mi SE 11.5 mph - N/A   Clear
8:35 AM 23.0 °F 12.4 °F 21.2 °F 93% 29.97 in 5.0 mi SE 10.4 mph - N/A   Clear
8:55 AM 23.0 °F 12.4 °F 21.2 °F 93% 29.97 in 5.0 mi SE 10.4 mph - N/A   Clear
9:15 AM 24.8 °F 14.6 °F 23.0 °F 93% 29.97 in 6.0 mi SSE 10.4 mph - N/A Rain Light Freezing Rain
9:35 AM 24.8 °F 14.0 °F 23.0 °F 93% 29.96 in 7.0 mi SSE 11.5 mph - N/A   Clear
9:55 AM 26.6 °F 16.8 °F 24.8 °F 93% 29.97 in 8.0 mi SSE 10.4 mph - N/A   Clear
10:15 AM 28.4 °F 19.1 °F 26.6 °F 93% 29.96 in 9.0 mi SSE 10.4 mph - N/A   Clear
10:35 AM 28.4 °F 19.7 °F 26.6 °F 93% 29.95 in 8.0 mi SE 9.2 mph - N/A   Clear
10:55 AM 28.4 °F 18.0 °F 26.6 °F 93% 29.94 in 9.0 mi SSE 12.7 mph - N/A   Clear
11:15 AM 30.2 °F 20.8 °F 28.4 °F 93% 29.93 in 9.0 mi SSE 11.5 mph - N/A   Clear
11:35 AM 30.2 °F 19.8 °F 28.4 °F 93% 29.92 in 10.0 mi South 13.8 mph - N/A   Partly Cloudy
11:55 AM 32.0 °F 21.6 °F 28.4 °F 87% 29.91 in 10.0 mi South 15.0 mph - N/A   Partly Cloudy
12:15 PM 33.8 °F 23.5 °F 28.4 °F 81% 29.89 in 10.0 mi South 16.1 mph - N/A   Clear
12:35 PM 33.8 °F 23.5 °F 28.4 °F 81% 29.88 in 10.0 mi South 16.1 mph - N/A   Clear
12:55 PM 33.8 °F 23.5 °F 28.4 °F 81% 29.86 in 10.0 mi South 16.1 mph - N/A   Clear
1:15 PM 35.6 °F 24.8 °F 28.4 °F 75% 29.85 in 10.0 mi South 19.6 mph - N/A   Clear
1:55 PM 35.6 °F 24.8 °F 30.2 °F 81% 29.84 in 10.0 mi South 19.6 mph - N/A   Clear
2:15 PM 37.4 °F 27.8 °F 30.2 °F 75% 29.84 in 10.0 mi South 17.3 mph 24.2 mph N/A   Clear
2:35 PM 37.4 °F 27.8 °F 30.2 °F 75% 29.84 in 9.0 mi South 17.3 mph 24.2 mph N/A   Clear
2:55 PM 37.4 °F 27.8 °F 30.2 °F 75% 29.84 in 10.0 mi South 17.3 mph 27.6 mph N/A   Clear
3:15 PM 37.4 °F 28.9 °F 30.2 °F 75% 29.85 in 10.0 mi South 13.8 mph - N/A   Mostly Cloudy
3:35 PM 37.4 °F 28.9 °F 30.2 °F 75% 29.86 in 10.0 mi South 13.8 mph - N/A   Partly Cloudy
3:55 PM 37.4 °F 27.8 °F 30.2 °F 75% 29.86 in 10.0 mi South 17.3 mph - N/A   Partly Cloudy
4:15 PM 35.6 °F 25.5 °F 30.2 °F 81% 29.86 in 10.0 mi South 17.3 mph - N/A   Clear
4:35 PM 35.6 °F 26.2 °F 30.2 °F 81% 29.86 in 10.0 mi South 15.0 mph - N/A   Clear
4:55 PM 35.6 °F 26.2 °F 30.2 °F 81% 29.86 in 10.0 mi South 15.0 mph - N/A   Clear
5:15 PM 35.6 °F 26.2 °F 30.2 °F 81% 29.87 in 10.0 mi South 15.0 mph - N/A   Clear
5:35 PM 35.6 °F 27.1 °F 30.2 °F 81% 29.87 in - South 12.7 mph - N/A   Clear
5:55 PM 35.6 °F 27.1 °F 30.2 °F 81% 29.87 in 10.0 mi South 12.7 mph - N/A   Clear
6:15 PM 33.8 °F 25.8 °F 30.2 °F 87% 29.87 in 10.0 mi South 10.4 mph - N/A   Clear
6:35 PM 33.8 °F 25.3 °F 30.2 °F 87% 29.86 in 10.0 mi South 11.5 mph - N/A   Clear
6:55 PM 33.8 °F 24.8 °F 30.2 °F 87% 29.86 in 10.0 mi South 12.7 mph - N/A   Clear
7:15 PM 33.8 °F 24.3 °F 30.2 °F 87% 29.86 in 10.0 mi SSW 13.8 mph - N/A   Partly Cloudy
7:35 PM 33.8 °F 24.3 °F 30.2 °F 87% 29.87 in 10.0 mi SSW 13.8 mph - N/A   Partly Cloudy
7:55 PM 35.6 °F 26.2 °F 30.2 °F 81% 29.88 in 10.0 mi SW 15.0 mph - N/A   Mostly Cloudy
8:15 PM 35.6 °F 25.5 °F 30.2 °F 81% 29.89 in 10.0 mi SW 17.3 mph - N/A   Mostly Cloudy
8:35 PM 33.8 °F 23.9 °F 28.4 °F 81% 29.91 in 10.0 mi WSW 15.0 mph 23.0 mph N/A   Mostly Cloudy
8:55 PM 33.8 °F 23.5 °F 28.4 °F 81% 29.91 in 10.0 mi WSW 16.1 mph 21.9 mph N/A   Partly Cloudy
9:15 PM 33.8 °F 23.9 °F 28.4 °F 81% 29.92 in 10.0 mi WSW 15.0 mph - N/A   Clear
9:35 PM 33.8 °F 24.3 °F 28.4 °F 81% 29.92 in 10.0 mi West 13.8 mph - N/A   Clear
9:55 PM 32.0 °F 22.1 °F 26.6 °F 80% 29.93 in 10.0 mi WSW 13.8 mph - N/A   Clear
10:15 PM 32.0 °F 22.1 °F 26.6 °F 80% 29.94 in 10.0 mi WSW 13.8 mph - N/A   Clear
10:35 PM 32.0 °F 21.2 °F 26.6 °F 80% 29.95 in 10.0 mi WSW 16.1 mph - N/A   Clear
10:55 PM 32.0 °F 21.2 °F 26.6 °F 80% 29.97 in 10.0 mi West 16.1 mph 21.9 mph N/A   Clear
11:55 PM 30.2 °F 18.9 °F 26.6 °F 86% 29.99 in 10.0 mi West 16.1 mph - N/A   Clear